Location: Bermeries
(50.2863°N, 3.7551°E)
Time: 04:14:02
(UTC+00:00)

Cosmos 2251 Rocket - Pass Details

Date: 23 May 2024
Orbit: 762 x 790 km, 74.0° (Epoch: 21 June)

Event Time Altitude Azimuth Distance (km) Brightness Sun altitude
Exits shadow 00:44:28 26° 228° (SW) 1,466 4.5 -17.7°
Maximum altitude 00:47:17 59° 298° (WNW) 890 3.8 -17.6°
Drops below altitude 10° 00:52:31 10° 18° (NNE) 2,332 7.3 -17.4°
Sets 00:54:57 0° 23° (NNE) 3,268 8.5 -17.2°
